Time,TemperatureF,DewpointF,PressureIn,WindDirection,WindDirectionDegrees,WindSpeedMPH,WindSpeedGustMPH,Humidity,HourlyPrecipIn,Conditions,Clouds,dailyrainin,SolarRadiationWatts/m^2,SoftwareType,DateUTC
2013-11-18 00:02:00,45.0,36.0,29.96,West,279,0.0,3.0,71,0.00,,,0.00,0,Custom,2013-11-18 06:02:00,
2013-11-18 00:07:00,44.4,36.0,29.96,West,279,0.0,2.0,71,0.00,,,0.00,0,Custom,2013-11-18 06:07:00,
2013-11-18 00:12:00,44.3,36.0,29.96,West,279,0.0,2.0,73,0.00,,,0.00,0,Custom,2013-11-18 06:12:00,
2013-11-18 00:17:00,44.4,36.0,29.96,West,279,0.0,1.0,73,0.00,,,0.00,0,Custom,2013-11-18 06:17:00,
2013-11-18 00:22:00,44.3,36.0,29.96,West,279,0.0,1.0,73,0.00,,,0.00,0,Custom,2013-11-18 06:22:00,
2013-11-18 00:27:00,44.3,36.0,29.96,West,279,0.0,2.0,73,0.00,,,0.00,0,Custom,2013-11-18 06:27:00,
2013-11-18 00:32:00,44.2,36.0,29.96,West,279,2.0,3.0,73,0.00,,,0.00,0,Custom,2013-11-18 06:32:00,
2013-11-18 00:37:00,43.9,36.0,29.96,West,279,0.0,4.0,73,0.00,,,0.00,0,Custom,2013-11-18 06:37:00,
2013-11-18 00:42:00,43.9,36.0,29.96,North,0,0.0,4.0,74,0.00,,,0.00,0,Custom,2013-11-18 06:42:00,
2013-11-18 00:47:00,43.6,36.0,29.96,North,0,0.0,0.0,74,0.00,,,0.00,0,Custom,2013-11-18 06:47:00,
2013-11-18 00:52:00,43.4,36.0,29.96,North,0,0.0,0.0,75,0.00,,,0.00,0,Custom,2013-11-18 06:52:00,
2013-11-18 00:57:00,42.8,35.0,29.96,North,0,0.0,1.0,75,0.00,,,0.00,0,Custom,2013-11-18 06:57:00,
2013-11-18 01:02:00,42.6,36.0,29.96,North,0,0.0,1.0,76,0.00,,,0.00,0,Custom,2013-11-18 07:02:00,
2013-11-18 01:07:00,42.4,35.0,29.96,North,0,0.0,1.0,76,0.00,,,0.00,0,Custom,2013-11-18 07:07:00,
2013-11-18 01:12:00,42.1,35.0,29.96,North,0,0.0,1.0,77,0.00,,,0.00,0,Custom,2013-11-18 07:12:00,
2013-11-18 01:17:00,42.1,35.0,29.96,North,0,0.0,0.0,77,0.00,,,0.00,0,Custom,2013-11-18 07:17:00,
2013-11-18 01:22:00,41.8,35.0,29.96,North,0,0.0,2.0,78,0.00,,,0.00,0,Custom,2013-11-18 07:22:00,
2013-11-18 01:27:00,41.9,36.0,29.96,North,0,0.0,1.0,78,0.00,,,0.00,0,Custom,2013-11-18 07:27:00,
2013-11-18 01:32:00,42.2,36.0,29.96,North,0,0.0,3.0,79,0.00,,,0.00,0,Custom,2013-11-18 07:32:00,
2013-11-18 01:37:00,42.2,36.0,29.96,North,0,0.0,2.0,78,0.00,,,0.00,0,Custom,2013-11-18 07:37:00,
2013-11-18 01:42:00,41.9,36.0,29.96,North,0,2.0,2.0,78,0.00,,,0.00,0,Custom,2013-11-18 07:42:00,
2013-11-18 01:47:00,41.9,36.0,29.96,North,0,0.0,1.0,78,0.00,,,0.00,0,Custom,2013-11-18 07:47:00,
2013-11-18 01:52:00,41.5,35.0,29.96,North,0,0.0,0.0,78,0.00,,,0.00,0,Custom,2013-11-18 07:52:00,
2013-11-18 01:57:00,41.2,35.0,29.96,North,0,0.0,0.0,79,0.00,,,0.00,0,Custom,2013-11-18 07:57:00,
2013-11-18 02:02:00,40.9,35.0,29.97,North,0,0.0,0.0,80,0.00,,,0.00,0,Custom,2013-11-18 08:02:00,
2013-11-18 02:07:00,40.6,35.0,29.96,North,0,0.0,0.0,80,0.00,,,0.00,0,Custom,2013-11-18 08:07:00,
2013-11-18 02:12:00,40.6,35.0,29.96,North,0,0.0,1.0,81,0.00,,,0.00,0,Custom,2013-11-18 08:12:00,
2013-11-18 02:17:00,40.3,35.0,29.96,North,0,0.0,0.0,81,0.00,,,0.00,0,Custom,2013-11-18 08:17:00,
2013-11-18 02:22:00,39.8,34.0,29.96,North,0,0.0,0.0,81,0.00,,,0.00,0,Custom,2013-11-18 08:22:00,
2013-11-18 02:27:00,39.8,35.0,29.96,North,0,0.0,0.0,81,0.00,,,0.00,0,Custom,2013-11-18 08:27:00,
2013-11-18 02:32:00,40.0,35.0,29.96,North,0,0.0,0.0,82,0.00,,,0.00,0,Custom,2013-11-18 08:32:00,
2013-11-18 02:37:00,39.6,35.0,29.96,North,0,0.0,0.0,82,0.00,,,0.00,0,Custom,2013-11-18 08:37:00,
2013-11-18 02:42:00,39.4,35.0,29.96,North,0,0.0,0.0,83,0.00,,,0.00,0,Custom,2013-11-18 08:42:00,
2013-11-18 02:47:00,39.4,35.0,29.96,North,0,0.0,1.0,83,0.00,,,0.00,0,Custom,2013-11-18 08:47:00,
2013-11-18 02:52:00,39.3,35.0,29.97,North,0,0.0,0.0,83,0.00,,,0.00,0,Custom,2013-11-18 08:52:00,
2013-11-18 02:57:00,38.8,34.0,29.98,North,0,0.0,0.0,84,0.00,,,0.00,0,Custom,2013-11-18 08:57:00,
2013-11-18 03:02:00,38.4,34.0,29.97,North,0,0.0,0.0,84,0.00,,,0.00,0,Custom,2013-11-18 09:02:00,
2013-11-18 03:07:00,38.3,34.0,29.98,North,0,0.0,0.0,85,0.00,,,0.00,0,Custom,2013-11-18 09:07:00,
2013-11-18 03:12:00,38.2,34.0,29.98,North,0,0.0,0.0,85,0.00,,,0.00,0,Custom,2013-11-18 09:12:00,
2013-11-18 03:17:00,38.0,34.0,29.98,North,0,0.0,1.0,85,0.00,,,0.00,0,Custom,2013-11-18 09:17:00,
2013-11-18 03:22:00,37.8,34.0,29.97,North,0,0.0,0.0,85,0.00,,,0.00,0,Custom,2013-11-18 09:22:00,
2013-11-18 03:27:00,37.9,34.0,29.97,North,0,0.0,1.0,86,0.00,,,0.00,0,Custom,2013-11-18 09:27:00,
2013-11-18 03:32:00,38.4,35.0,29.97,North,0,0.0,2.0,86,0.00,,,0.00,0,Custom,2013-11-18 09:32:00,
2013-11-18 03:37:00,38.4,35.0,29.96,North,0,0.0,1.0,86,0.00,,,0.00,0,Custom,2013-11-18 09:37:00,
2013-11-18 03:42:00,39.0,35.0,29.96,North,0,2.0,3.0,86,0.00,,,0.00,0,Custom,2013-11-18 09:42:00,
2013-11-18 03:47:00,39.0,35.0,29.96,North,0,2.0,3.0,85,0.00,,,0.00,0,Custom,2013-11-18 09:47:00,
2013-11-18 03:52:00,38.9,35.0,29.96,North,0,0.0,2.0,85,0.00,,,0.00,0,Custom,2013-11-18 09:52:00,
2013-11-18 03:57:00,38.9,35.0,29.96,North,0,0.0,2.0,85,0.00,,,0.00,0,Custom,2013-11-18 09:57:00,
2013-11-18 04:02:00,38.2,34.0,29.97,North,0,0.0,0.0,85,0.00,,,0.00,0,Custom,2013-11-18 10:02:00,
2013-11-18 04:07:00,38.0,34.0,29.97,North,0,0.0,2.0,86,0.00,,,0.00,0,Custom,2013-11-18 10:07:00,
2013-11-18 04:12:00,37.7,34.0,29.97,North,0,0.0,0.0,85,0.00,,,0.00,0,Custom,2013-11-18 10:12:00,
2013-11-18 04:17:00,37.8,34.0,29.97,North,0,0.0,1.0,86,0.00,,,0.00,0,Custom,2013-11-18 10:17:00,
2013-11-18 04:22:00,37.4,34.0,29.98,North,0,0.0,1.0,86,0.00,,,0.00,0,Custom,2013-11-18 10:22:00,
2013-11-18 04:27:00,37.0,33.0,29.98,North,0,0.0,2.0,86,0.00,,,0.00,0,Custom,2013-11-18 10:27:00,
2013-11-18 04:32:00,36.3,33.0,29.99,North,0,0.0,0.0,86,0.00,,,0.00,0,Custom,2013-11-18 10:32:00,
2013-11-18 04:37:00,36.3,33.0,30.01,North,0,0.0,0.0,87,0.00,,,0.00,0,Custom,2013-11-18 10:37:00,
2013-11-18 04:42:00,35.9,33.0,30.01,North,0,0.0,0.0,88,0.00,,,0.00,0,Custom,2013-11-18 10:42:00,
2013-11-18 04:47:00,35.8,33.0,30.02,North,0,0.0,0.0,88,0.00,,,0.00,0,Custom,2013-11-18 10:47:00,
2013-11-18 04:52:00,35.0,32.0,30.02,North,0,0.0,0.0,88,0.00,,,0.00,0,Custom,2013-11-18 10:52:00,
2013-11-18 04:57:00,34.5,31.0,30.03,North,0,0.0,0.0,89,0.00,,,0.00,0,Custom,2013-11-18 10:57:00,
2013-11-18 05:02:00,34.6,32.0,30.04,North,0,0.0,0.0,89,0.00,,,0.00,0,Custom,2013-11-18 11:02:00,
2013-11-18 05:07:00,35.0,33.0,30.05,North,0,0.0,0.0,91,0.00,,,0.00,0,Custom,2013-11-18 11:07:00,
2013-11-18 05:12:00,34.9,33.0,30.05,North,0,0.0,0.0,91,0.00,,,0.00,0,Custom,2013-11-18 11:12:00,
2013-11-18 05:17:00,34.9,33.0,30.05,North,0,2.0,0.0,91,0.00,,,0.00,0,Custom,2013-11-18 11:17:00,
2013-11-18 05:22:00,34.4,32.0,30.05,North,0,0.0,2.0,90,0.00,,,0.00,0,Custom,2013-11-18 11:22:00,
2013-11-18 05:27:00,34.0,32.0,30.05,North,0,0.0,0.0,90,0.00,,,0.00,0,Custom,2013-11-18 11:27:00,
2013-11-18 05:32:00,33.9,32.0,30.05,North,0,0.0,0.0,91,0.00,,,0.00,0,Custom,2013-11-18 11:32:00,
2013-11-18 05:37:00,33.5,31.0,30.06,North,0,0.0,0.0,91,0.00,,,0.00,0,Custom,2013-11-18 11:37:00,
2013-11-18 05:42:00,33.6,31.0,30.06,North,0,0.0,0.0,91,0.00,,,0.00,0,Custom,2013-11-18 11:42:00,
2013-11-18 05:47:00,32.9,31.0,30.07,North,0,0.0,0.0,91,0.00,,,0.00,0,Custom,2013-11-18 11:47:00,
2013-11-18 05:52:00,32.9,31.0,30.07,North,0,0.0,0.0,92,0.00,,,0.00,0,Custom,2013-11-18 11:52:00,
2013-11-18 05:57:00,32.8,31.0,30.08,North,0,0.0,0.0,92,0.00,,,0.00,0,Custom,2013-11-18 11:57:00,
2013-11-18 06:02:00,32.9,31.0,30.07,North,0,0.0,0.0,92,0.00,,,0.00,0,Custom,2013-11-18 12:02:00,
2013-11-18 06:07:00,32.7,31.0,30.07,North,0,0.0,0.0,92,0.00,,,0.00,0,Custom,2013-11-18 12:07:00,
2013-11-18 06:12:00,32.5,31.0,30.08,North,0,0.0,0.0,92,0.00,,,0.00,0,Custom,2013-11-18 12:12:00,
2013-11-18 06:17:00,32.3,30.0,30.08,North,0,0.0,0.0,92,0.00,,,0.00,0,Custom,2013-11-18 12:17:00,
2013-11-18 06:22:00,32.3,30.0,30.08,North,0,0.0,0.0,93,0.00,,,0.00,0,Custom,2013-11-18 12:22:00,
2013-11-18 06:27:00,32.2,30.0,30.08,North,0,0.0,0.0,93,0.00,,,0.00,0,Custom,2013-11-18 12:27:00,
2013-11-18 06:32:00,32.1,30.0,30.08,North,0,0.0,0.0,93,0.00,,,0.00,0,Custom,2013-11-18 12:32:00,
2013-11-18 06:37:00,32.6,31.0,30.09,North,0,0.0,0.0,94,0.00,,,0.00,0,Custom,2013-11-18 12:37:00,
2013-11-18 06:42:00,32.7,31.0,30.09,North,0,0.0,1.0,94,0.00,,,0.00,0,Custom,2013-11-18 12:42:00,
2013-11-18 06:47:00,33.7,32.0,30.10,North,0,0.0,1.0,94,0.00,,,0.00,0,Custom,2013-11-18 12:47:00,
2013-11-18 06:52:00,33.0,32.0,30.10,North,0,0.0,0.0,94,0.00,,,0.00,0,Custom,2013-11-18 12:52:00,
2013-11-18 06:57:00,33.0,31.0,30.10,North,0,0.0,0.0,93,0.00,,,0.00,0,Custom,2013-11-18 12:57:00,
2013-11-18 07:02:00,33.1,31.0,30.11,North,0,0.0,0.0,93,0.00,,,0.00,0,Custom,2013-11-18 13:02:00,
2013-11-18 07:07:00,33.1,31.0,30.11,North,0,0.0,0.0,93,0.00,,,0.00,0,Custom,2013-11-18 13:07:00,
2013-11-18 07:12:00,33.0,31.0,30.11,North,0,0.0,0.0,93,0.00,,,0.00,0,Custom,2013-11-18 13:12:00,
2013-11-18 07:17:00,33.1,31.0,30.11,North,0,0.0,0.0,94,0.00,,,0.00,0,Custom,2013-11-18 13:17:00,
2013-11-18 07:22:00,33.3,32.0,30.11,North,0,0.0,0.0,93,0.00,,,0.00,8.58,Custom,2013-11-18 13:22:00,
2013-11-18 07:27:00,34.3,33.0,30.12,North,0,0.0,1.0,94,0.00,,,0.00,10.53,Custom,2013-11-18 13:27:00,
2013-11-18 07:32:00,34.5,33.0,30.12,North,0,0.0,0.0,94,0.00,,,0.00,12.09,Custom,2013-11-18 13:32:00,
2013-11-18 07:37:00,34.9,33.0,30.12,North,0,0.0,0.0,93,0.00,,,0.00,16.38,Custom,2013-11-18 13:37:00,
2013-11-18 07:42:00,35.9,34.0,30.12,North,0,0.0,2.0,92,0.00,,,0.00,19.89,Custom,2013-11-18 13:42:00,
2013-11-18 07:47:00,36.5,34.0,30.12,North,0,0.0,0.0,89,0.00,,,0.00,22.23,Custom,2013-11-18 13:47:00,
2013-11-18 07:52:00,37.0,33.0,30.12,North,0,0.0,0.0,87,0.00,,,0.00,23.79,Custom,2013-11-18 13:52:00,
2013-11-18 07:57:00,38.1,34.0,30.12,North,0,0.0,0.0,85,0.00,,,0.00,25.74,Custom,2013-11-18 13:57:00,
2013-11-18 08:02:00,38.9,34.0,30.13,North,0,0.0,3.0,83,0.00,,,0.00,30.81,Custom,2013-11-18 14:02:00,
2013-11-18 08:07:00,39.6,34.0,30.13,North,0,0.0,1.0,81,0.00,,,0.00,23.4,Custom,2013-11-18 14:07:00,
2013-11-18 08:12:00,39.8,34.0,30.13,North,0,0.0,0.0,80,0.00,,,0.00,27.3,Custom,2013-11-18 14:12:00,
2013-11-18 08:17:00,40.6,34.0,30.12,North,0,0.0,0.0,78,0.00,,,0.00,51.87,Custom,2013-11-18 14:17:00,
2013-11-18 08:22:00,41.2,34.0,30.13,North,0,0.0,0.0,76,0.00,,,0.00,51.09,Custom,2013-11-18 14:22:00,
2013-11-18 08:27:00,42.3,34.0,30.13,North,0,0.0,0.0,74,0.00,,,0.00,37.44,Custom,2013-11-18 14:27:00,
2013-11-18 08:32:00,43.0,35.0,30.13,North,0,0.0,0.0,72,0.00,,,0.00,33.15,Custom,2013-11-18 14:32:00,
2013-11-18 08:37:00,43.9,35.0,30.14,North,0,0.0,0.0,71,0.00,,,0.00,59.67,Custom,2013-11-18 14:37:00,
2013-11-18 08:42:00,44.1,35.0,30.14,North,0,0.0,0.0,69,0.00,,,0.00,46.8,Custom,2013-11-18 14:42:00,
2013-11-18 08:47:00,44.5,34.0,30.14,West,278,0.0,3.0,67,0.00,,,0.00,41.34,Custom,2013-11-18 14:47:00,
2013-11-18 08:52:00,44.7,34.0,30.14,West,278,0.0,1.0,66,0.00,,,0.00,32.76,Custom,2013-11-18 14:52:00,
2013-11-18 08:57:00,45.5,35.0,30.14,West,278,0.0,0.0,66,0.00,,,0.00,198.51,Custom,2013-11-18 14:57:00,
2013-11-18 09:02:00,45.9,35.0,30.14,WNW,282,0.0,0.0,64,0.00,,,0.00,227.37,Custom,2013-11-18 15:02:00,
2013-11-18 09:07:00,46.2,35.0,30.14,WNW,282,0.0,1.0,64,0.00,,,0.00,248.82,Custom,2013-11-18 15:07:00,
2013-11-18 09:12:00,46.6,35.0,30.14,WNW,282,0.0,0.0,63,0.00,,,0.00,263.64,Custom,2013-11-18 15:12:00,
2013-11-18 09:17:00,47.0,35.0,30.14,WNW,282,0.0,1.0,63,0.00,,,0.00,275.34,Custom,2013-11-18 15:17:00,
2013-11-18 09:22:00,47.6,35.0,30.15,WNW,282,0.0,0.0,61,0.00,,,0.00,289.38,Custom,2013-11-18 15:22:00,
2013-11-18 09:27:00,48.1,35.0,30.15,WNW,282,0.0,2.0,60,0.00,,,0.00,299.91,Custom,2013-11-18 15:27:00,
2013-11-18 09:32:00,48.7,35.0,30.15,WNW,282,0.0,0.0,60,0.00,,,0.00,312,Custom,2013-11-18 15:32:00,
2013-11-18 09:37:00,48.7,35.0,30.15,West,279,0.0,2.0,58,0.00,,,0.00,322.14,Custom,2013-11-18 15:37:00,
2013-11-18 09:42:00,48.7,35.0,30.15,West,279,0.0,1.0,59,0.00,,,0.00,330.33,Custom,2013-11-18 15:42:00,
2013-11-18 09:47:00,49.3,35.0,30.15,West,279,0.0,1.0,58,0.00,,,0.00,344.76,Custom,2013-11-18 15:47:00,
2013-11-18 09:52:00,49.8,35.0,30.15,West,279,0.0,1.0,58,0.00,,,0.00,354.51,Custom,2013-11-18 15:52:00,
2013-11-18 09:57:00,50.3,35.0,30.16,West,279,0.0,2.0,56,0.00,,,0.00,359.58,Custom,2013-11-18 15:57:00,
2013-11-18 10:02:00,49.9,36.0,30.15,West,276,0.0,2.0,58,0.00,,,0.00,376.74,Custom,2013-11-18 16:02:00,
2013-11-18 10:07:00,50.9,36.0,30.15,West,276,0.0,1.0,56,0.00,,,0.00,388.83,Custom,2013-11-18 16:07:00,
2013-11-18 10:12:00,51.2,35.0,30.15,West,276,0.0,1.0,55,0.00,,,0.00,400.92,Custom,2013-11-18 16:12:00,
2013-11-18 10:17:00,51.4,35.0,30.16,West,276,0.0,0.0,54,0.00,,,0.00,411.45,Custom,2013-11-18 16:17:00,
2013-11-18 10:22:00,51.4,36.0,30.16,West,281,0.0,0.0,55,0.00,,,0.00,421.98,Custom,2013-11-18 16:22:00,
2013-11-18 10:27:00,52.3,37.0,30.16,West,278,0.0,0.0,55,0.00,,,0.00,289.38,Custom,2013-11-18 16:27:00,
2013-11-18 10:32:00,52.9,36.0,30.16,West,278,0.0,0.0,52,0.00,,,0.00,331.89,Custom,2013-11-18 16:32:00,
2013-11-18 10:37:00,53.0,36.0,30.16,West,278,0.0,0.0,52,0.00,,,0.00,444.6,Custom,2013-11-18 16:37:00,
2013-11-18 10:42:00,52.8,36.0,30.16,West,278,0.0,2.0,52,0.00,,,0.00,453.18,Custom,2013-11-18 16:42:00,
2013-11-18 10:47:00,52.9,36.0,30.16,WNW,294,0.0,3.0,52,0.00,,,0.00,459.81,Custom,2013-11-18 16:47:00,
2013-11-18 10:52:00,52.7,37.0,30.16,North,358,0.0,2.0,54,0.00,,,0.00,397.02,Custom,2013-11-18 16:52:00,
2013-11-18 10:57:00,53.5,36.0,30.15,NNW,338,0.0,2.0,51,0.00,,,0.00,471.9,Custom,2013-11-18 16:57:00,
2013-11-18 11:02:00,53.6,35.0,30.15,WNW,282,0.0,2.0,49,0.00,,,0.00,476.97,Custom,2013-11-18 17:02:00,
2013-11-18 11:07:00,54.4,36.0,30.15,WNW,283,0.0,1.0,49,0.00,,,0.00,482.82,Custom,2013-11-18 17:07:00,
2013-11-18 11:12:00,54.8,35.0,30.15,West,267,0.0,2.0,48,0.00,,,0.00,487.11,Custom,2013-11-18 17:12:00,
2013-11-18 11:17:00,54.1,34.0,30.14,West,270,0.0,2.0,46,0.00,,,0.00,489.84,Custom,2013-11-18 17:17:00,
2013-11-18 11:22:00,53.8,37.0,30.15,North,0,0.0,6.0,52,0.00,,,0.00,494.13,Custom,2013-11-18 17:22:00,
2013-11-18 11:27:00,54.9,37.0,30.15,North,0,0.0,0.0,50,0.00,,,0.00,495.3,Custom,2013-11-18 17:27:00,
2013-11-18 11:32:00,55.7,36.0,30.14,NW,306,3.0,0.0,47,0.00,,,0.00,501.93,Custom,2013-11-18 17:32:00,
2013-11-18 11:37:00,55.9,35.0,30.14,NNW,327,0.0,2.0,45,0.00,,,0.00,502.32,Custom,2013-11-18 17:37:00,
2013-11-18 11:42:00,55.7,36.0,30.14,NW,325,0.0,1.0,47,0.00,,,0.00,504.66,Custom,2013-11-18 17:42:00,
2013-11-18 11:47:00,57.0,35.0,30.14,NW,325,0.0,0.0,44,0.00,,,0.00,507.39,Custom,2013-11-18 17:47:00,
2013-11-18 11:52:00,57.3,35.0,30.14,NW,325,0.0,0.0,42,0.00,,,0.00,507.39,Custom,2013-11-18 17:52:00,
2013-11-18 11:57:00,57.7,37.0,30.14,NW,325,0.0,0.0,45,0.00,,,0.00,508.56,Custom,2013-11-18 17:57:00,
2013-11-18 12:02:00,57.9,34.0,30.14,NNW,329,0.0,2.0,41,0.00,,,0.00,509.34,Custom,2013-11-18 18:02:00,
2013-11-18 12:07:00,57.6,35.0,30.14,North,350,0.0,2.0,42,0.00,,,0.00,507.39,Custom,2013-11-18 18:07:00,
2013-11-18 12:12:00,57.9,32.0,30.14,NNW,330,0.0,2.0,37,0.00,,,0.00,508.95,Custom,2013-11-18 18:12:00,
2013-11-18 12:17:00,58.6,33.0,30.14,NW,309,0.0,2.0,38,0.00,,,0.00,509.34,Custom,2013-11-18 18:17:00,
2013-11-18 12:22:00,57.9,32.0,30.14,North,3,0.0,0.0,38,0.00,,,0.00,504.66,Custom,2013-11-18 18:22:00,
2013-11-18 12:27:00,58.7,34.0,30.13,NW,322,0.0,2.0,39,0.00,,,0.00,502.71,Custom,2013-11-18 18:27:00,
2013-11-18 12:32:00,59.2,33.0,30.13,West,278,2.0,3.0,36,0.00,,,0.00,502.71,Custom,2013-11-18 18:32:00,
2013-11-18 12:37:00,59.5,33.0,30.13,West,268,0.0,2.0,37,0.00,,,0.00,499.59,Custom,2013-11-18 18:37:00,
2013-11-18 12:42:00,59.0,32.0,30.13,West,261,0.0,3.0,35,0.00,,,0.00,491.4,Custom,2013-11-18 18:42:00,
2013-11-18 12:47:00,59.0,33.0,30.13,West,261,0.0,0.0,37,0.00,,,0.00,493.35,Custom,2013-11-18 18:47:00,
2013-11-18 12:52:00,58.9,32.0,30.13,WNW,284,0.0,1.0,37,0.00,,,0.00,483.99,Custom,2013-11-18 18:52:00,
2013-11-18 12:57:00,60.4,35.0,30.13,WNW,284,0.0,1.0,38,0.00,,,0.00,483.99,Custom,2013-11-18 18:57:00,
2013-11-18 13:02:00,59.8,31.0,30.12,WNW,284,2.0,2.0,34,0.00,,,0.00,474.24,Custom,2013-11-18 19:02:00,
2013-11-18 13:07:00,60.0,33.0,30.13,NW,322,0.0,3.0,36,0.00,,,0.00,468,Custom,2013-11-18 19:07:00,
2013-11-18 13:12:00,59.6,31.0,30.12,NW,305,0.0,2.0,34,0.00,,,0.00,459.81,Custom,2013-11-18 19:12:00,
2013-11-18 13:17:00,60.4,33.0,30.12,NW,315,0.0,0.0,35,0.00,,,0.00,450.84,Custom,2013-11-18 19:17:00,
2013-11-18 13:22:00,61.5,34.0,30.12,NW,315,0.0,0.0,36,0.00,,,0.00,440.7,Custom,2013-11-18 19:22:00,
2013-11-18 13:27:00,60.9,33.0,30.12,NW,320,0.0,1.0,35,0.00,,,0.00,441.48,Custom,2013-11-18 19:27:00,
2013-11-18 13:32:00,61.4,33.0,30.12,NW,316,0.0,0.0,34,0.00,,,0.00,434.85,Custom,2013-11-18 19:32:00,
2013-11-18 13:37:00,61.9,32.0,30.12,NW,316,0.0,0.0,33,0.00,,,0.00,425.49,Custom,2013-11-18 19:37:00,
2013-11-18 13:42:00,62.5,33.0,30.12,NW,316,0.0,0.0,34,0.00,,,0.00,422.76,Custom,2013-11-18 19:42:00,
2013-11-18 13:47:00,62.3,30.0,30.12,West,273,0.0,3.0,30,0.00,,,0.00,409.89,Custom,2013-11-18 19:47:00,
2013-11-18 13:52:00,62.6,37.0,30.11,WSW,252,0.0,3.0,39,0.00,,,0.00,399.75,Custom,2013-11-18 19:52:00,
2013-11-18 13:57:00,62.2,31.0,30.11,WNW,285,0.0,4.0,31,0.00,,,0.00,391.17,Custom,2013-11-18 19:57:00,
2013-11-18 14:02:00,62.3,32.0,30.11,WNW,285,0.0,2.0,31,0.00,,,0.00,379.86,Custom,2013-11-18 20:02:00,
2013-11-18 14:07:00,62.8,30.0,30.11,WNW,285,0.0,1.0,29,0.00,,,0.00,368.55,Custom,2013-11-18 20:07:00,
2013-11-18 14:12:00,62.2,30.0,30.11,WNW,290,1.0,3.0,29,0.00,,,0.00,358.41,Custom,2013-11-18 20:12:00,
2013-11-18 14:17:00,62.2,30.0,30.11,West,266,0.0,2.0,30,0.00,,,0.00,345.54,Custom,2013-11-18 20:17:00,
2013-11-18 14:22:00,61.3,30.0,30.11,WNW,296,0.0,5.0,30,0.00,,,0.00,333.84,Custom,2013-11-18 20:22:00,
2013-11-18 14:27:00,60.7,29.0,30.10,WNW,299,0.0,3.0,30,0.00,,,0.00,297.96,Custom,2013-11-18 20:27:00,
2013-11-18 14:32:00,61.5,32.0,30.10,WNW,285,3.0,5.0,33,0.00,,,0.00,196.95,Custom,2013-11-18 20:32:00,
2013-11-18 14:37:00,61.8,31.0,30.10,WNW,292,0.0,3.0,31,0.00,,,0.00,297.18,Custom,2013-11-18 20:37:00,
2013-11-18 14:42:00,61.4,30.0,30.10,WNW,292,0.0,4.0,31,0.00,,,0.00,187.2,Custom,2013-11-18 20:42:00,
2013-11-18 14:47:00,61.7,31.0,30.09,WNW,292,0.0,1.0,31,0.00,,,0.00,207.87,Custom,2013-11-18 20:47:00,
2013-11-18 14:52:00,61.3,32.0,30.09,WNW,292,0.0,0.0,33,0.00,,,0.00,183.69,Custom,2013-11-18 20:52:00,
2013-11-18 14:57:00,62.2,32.0,30.09,WNW,292,0.0,0.0,32,0.00,,,0.00,164.58,Custom,2013-11-18 20:57:00,
2013-11-18 15:02:00,61.9,31.0,30.09,WNW,292,0.0,1.0,31,0.00,,,0.00,149.37,Custom,2013-11-18 21:02:00,
2013-11-18 15:07:00,61.4,31.0,30.09,WNW,299,0.0,0.0,33,0.00,,,0.00,158.34,Custom,2013-11-18 21:07:00,
2013-11-18 15:12:00,62.0,31.0,30.09,WNW,299,0.0,0.0,31,0.00,,,0.00,145.86,Custom,2013-11-18 21:12:00,
2013-11-18 15:17:00,61.1,30.0,30.09,NNW,348,0.0,0.0,31,0.00,,,0.00,141.57,Custom,2013-11-18 21:17:00,
2013-11-18 15:22:00,61.5,31.0,30.09,NNW,343,0.0,2.0,31,0.00,,,0.00,125.97,Custom,2013-11-18 21:22:00,
2013-11-18 15:27:00,60.4,30.0,30.09,NNW,344,0.0,0.0,31,0.00,,,0.00,99.06,Custom,2013-11-18 21:27:00,
2013-11-18 15:32:00,61.0,30.0,30.09,NNW,344,0.0,1.0,31,0.00,,,0.00,112.71,Custom,2013-11-18 21:32:00,
2013-11-18 15:37:00,60.0,29.0,30.09,NNW,344,2.0,2.0,30,0.00,,,0.00,76.05,Custom,2013-11-18 21:37:00,
2013-11-18 15:42:00,59.7,29.0,30.09,NNW,344,0.0,2.0,30,0.00,,,0.00,81.12,Custom,2013-11-18 21:42:00,
2013-11-18 15:47:00,59.8,29.0,30.09,NNW,344,0.0,0.0,31,0.00,,,0.00,73.71,Custom,2013-11-18 21:47:00,
2013-11-18 15:52:00,61.0,29.0,30.09,NNW,344,0.0,0.0,30,0.00,,,0.00,30.81,Custom,2013-11-18 21:52:00,
2013-11-18 15:57:00,58.3,28.0,30.10,NNW,344,0.0,0.0,31,0.00,,,0.00,17.94,Custom,2013-11-18 21:57:00,
2013-11-18 16:02:00,56.7,28.0,30.09,NNW,344,0.0,1.0,34,0.00,,,0.00,16.38,Custom,2013-11-18 22:02:00,
2013-11-18 16:07:00,56.0,28.0,30.10,NNW,344,0.0,0.0,33,0.00,,,0.00,15.6,Custom,2013-11-18 22:07:00,
2013-11-18 16:12:00,55.8,28.0,30.10,NNW,344,0.0,0.0,34,0.00,,,0.00,14.82,Custom,2013-11-18 22:12:00,
2013-11-18 16:17:00,55.3,28.0,30.10,NNW,344,0.0,0.0,35,0.00,,,0.00,13.65,Custom,2013-11-18 22:17:00,
2013-11-18 16:22:00,54.8,28.0,30.10,NNW,344,0.0,0.0,35,0.00,,,0.00,12.87,Custom,2013-11-18 22:22:00,
2013-11-18 16:27:00,54.5,29.0,30.10,NNW,344,0.0,0.0,37,0.00,,,0.00,12.48,Custom,2013-11-18 22:27:00,
2013-11-18 16:32:00,53.9,30.0,30.10,NNW,344,0.0,0.0,39,0.00,,,0.00,11.31,Custom,2013-11-18 22:32:00,
2013-11-18 16:37:00,53.2,29.0,30.09,NNW,344,0.0,0.0,40,0.00,,,0.00,10.14,Custom,2013-11-18 22:37:00,
2013-11-18 16:42:00,52.5,28.0,30.10,NNW,344,0.0,0.0,39,0.00,,,0.00,8.97,Custom,2013-11-18 22:42:00,
2013-11-18 16:47:00,51.8,28.0,30.10,NNW,344,0.0,0.0,40,0.00,,,0.00,7.8,Custom,2013-11-18 22:47:00,
2013-11-18 16:52:00,51.6,29.0,30.09,NNW,344,0.0,0.0,41,0.00,,,0.00,0,Custom,2013-11-18 22:52:00,
2013-11-18 16:57:00,50.9,29.0,30.10,NNW,344,0.0,0.0,43,0.00,,,0.00,0,Custom,2013-11-18 22:57:00,
2013-11-18 17:02:00,50.0,29.0,30.10,NNW,344,0.0,0.0,43,0.00,,,0.00,0,Custom,2013-11-18 23:02:00,
2013-11-18 17:07:00,49.6,28.0,30.10,NNW,344,0.0,0.0,43,0.00,,,0.00,0,Custom,2013-11-18 23:07:00,
2013-11-18 17:12:00,49.3,28.0,30.10,NNW,344,0.0,0.0,44,0.00,,,0.00,0,Custom,2013-11-18 23:12:00,
2013-11-18 17:17:00,48.9,28.0,30.10,NNW,344,0.0,0.0,45,0.00,,,0.00,0,Custom,2013-11-18 23:17:00,
2013-11-18 17:22:00,47.9,28.0,30.10,NNW,344,0.0,0.0,46,0.00,,,0.00,0,Custom,2013-11-18 23:22:00,
2013-11-18 17:27:00,47.0,27.0,30.11,NNW,344,0.0,0.0,46,0.00,,,0.00,0,Custom,2013-11-18 23:27:00,
2013-11-18 17:32:00,47.2,28.0,30.11,NNW,344,0.0,0.0,48,0.00,,,0.00,0,Custom,2013-11-18 23:32:00,
2013-11-18 17:37:00,46.2,28.0,30.10,NNW,344,0.0,0.0,49,0.00,,,0.00,0,Custom,2013-11-18 23:37:00,
2013-11-18 17:42:00,46.1,28.0,30.10,NNW,344,0.0,0.0,48,0.00,,,0.00,0,Custom,2013-11-18 23:42:00,
2013-11-18 17:47:00,46.1,28.0,30.11,NNW,344,0.0,0.0,49,0.00,,,0.00,0,Custom,2013-11-18 23:47:00,
2013-11-18 17:52:00,45.9,28.0,30.11,NNW,344,0.0,0.0,49,0.00,,,0.00,0,Custom,2013-11-18 23:52:00,
2013-11-18 17:57:00,45.4,27.0,30.11,NNW,344,0.0,0.0,48,0.00,,,0.00,0,Custom,2013-11-18 23:57:00,
2013-11-18 18:02:00,45.2,27.0,30.11,NNW,344,0.0,0.0,48,0.00,,,0.00,0,Custom,2013-11-19 00:02:00,
2013-11-18 18:07:00,44.3,28.0,30.11,NNW,344,0.0,0.0,53,0.00,,,0.00,0,Custom,2013-11-19 00:07:00,
2013-11-18 18:12:00,43.5,28.0,30.12,NNW,344,0.0,0.0,55,0.00,,,0.00,0,Custom,2013-11-19 00:12:00,
2013-11-18 18:17:00,43.1,28.0,30.11,NNW,344,0.0,0.0,55,0.00,,,0.00,0,Custom,2013-11-19 00:17:00,
2013-11-18 18:22:00,42.8,28.0,30.12,NNW,344,0.0,0.0,55,0.00,,,0.00,0,Custom,2013-11-19 00:22:00,
2013-11-18 18:27:00,42.4,27.0,30.12,NNW,344,0.0,0.0,55,0.00,,,0.00,0,Custom,2013-11-19 00:27:00,
2013-11-18 18:32:00,42.8,28.0,30.12,NNW,344,0.0,0.0,55,0.00,,,0.00,0,Custom,2013-11-19 00:32:00,
2013-11-18 18:37:00,43.3,28.0,30.12,NNW,344,0.0,0.0,55,0.00,,,0.00,0,Custom,2013-11-19 00:37:00,
2013-11-18 18:42:00,42.7,27.0,30.12,NNW,344,0.0,0.0,54,0.00,,,0.00,0,Custom,2013-11-19 00:42:00,
2013-11-18 18:47:00,42.6,28.0,30.12,NNW,344,0.0,0.0,55,0.00,,,0.00,0,Custom,2013-11-19 00:47:00,
2013-11-18 18:52:00,42.4,27.0,30.12,NNW,344,0.0,0.0,54,0.00,,,0.00,0,Custom,2013-11-19 00:52:00,
2013-11-18 18:57:00,42.1,27.0,30.12,NNW,344,0.0,0.0,55,0.00,,,0.00,0,Custom,2013-11-19 00:57:00,
2013-11-18 19:02:00,42.1,28.0,30.13,NNW,344,0.0,0.0,57,0.00,,,0.00,0,Custom,2013-11-19 01:02:00,
2013-11-18 19:07:00,42.0,28.0,30.12,NNW,344,0.0,0.0,57,0.00,,,0.00,0,Custom,2013-11-19 01:07:00,
2013-11-18 19:12:00,41.9,27.0,30.13,NNW,344,0.0,0.0,56,0.00,,,0.00,0,Custom,2013-11-19 01:12:00,
2013-11-18 19:17:00,40.8,27.0,30.13,NNW,344,0.0,0.0,57,0.00,,,0.00,0,Custom,2013-11-19 01:17:00,
2013-11-18 19:22:00,40.2,27.0,30.13,NNW,344,0.0,0.0,59,0.00,,,0.00,0,Custom,2013-11-19 01:22:00,
2013-11-18 19:27:00,39.8,27.0,30.13,NNW,344,0.0,0.0,60,0.00,,,0.00,0,Custom,2013-11-19 01:27:00,
2013-11-18 19:32:00,39.4,27.0,30.13,NNW,344,0.0,0.0,60,0.00,,,0.00,0,Custom,2013-11-19 01:32:00,
2013-11-18 19:37:00,39.4,27.0,30.13,NNW,344,0.0,0.0,60,0.00,,,0.00,0,Custom,2013-11-19 01:37:00,
2013-11-18 19:42:00,39.6,27.0,30.13,NNW,344,0.0,0.0,61,0.00,,,0.00,0,Custom,2013-11-19 01:42:00,
2013-11-18 19:47:00,39.4,28.0,30.13,NNW,344,0.0,0.0,63,0.00,,,0.00,0,Custom,2013-11-19 01:47:00,
2013-11-18 19:48:00,39.3,28.0,30.13,NNW,344,0.0,0.0,63,0.00,,,0.00,0,Custom,2013-11-19 01:48:00,
2013-11-18 19:53:00,39.3,28.0,30.13,NNW,344,0.0,0.0,63,0.00,,,0.00,0,Custom,2013-11-19 01:53:00,
2013-11-18 19:58:00,38.8,28.0,30.13,NNW,344,0.0,0.0,64,0.00,,,0.00,0,Custom,2013-11-19 01:58:00,
2013-11-18 20:03:00,38.3,28.0,30.13,NNW,344,0.0,0.0,65,0.00,,,0.00,0,Custom,2013-11-19 02:03:00,
2013-11-18 20:08:00,38.0,28.0,30.13,NNW,344,0.0,0.0,66,0.00,,,0.00,0,Custom,2013-11-19 02:08:00,
2013-11-18 20:13:00,38.2,27.0,30.13,NNW,344,0.0,0.0,64,0.00,,,0.00,0,Custom,2013-11-19 02:13:00,
2013-11-18 20:18:00,37.8,27.0,30.13,NNW,344,0.0,0.0,64,0.00,,,0.00,0,Custom,2013-11-19 02:18:00,
2013-11-18 20:23:00,37.4,27.0,30.13,NNW,344,0.0,0.0,66,0.00,,,0.00,0,Custom,2013-11-19 02:23:00,
2013-11-18 20:28:00,37.8,27.0,30.13,NNW,344,0.0,0.0,64,0.00,,,0.00,0,Custom,2013-11-19 02:28:00,
2013-11-18 20:33:00,37.8,26.0,30.14,NNW,344,0.0,0.0,63,0.00,,,0.00,0,Custom,2013-11-19 02:33:00,
2013-11-18 20:38:00,37.7,26.0,30.13,NNW,344,0.0,0.0,63,0.00,,,0.00,0,Custom,2013-11-19 02:38:00,
2013-11-18 20:43:00,38.0,26.0,30.13,NNW,344,0.0,0.0,63,0.00,,,0.00,0,Custom,2013-11-19 02:43:00,
2013-11-18 20:48:00,38.3,27.0,30.13,NNW,344,0.0,0.0,62,0.00,,,0.00,0,Custom,2013-11-19 02:48:00,
2013-11-18 20:53:00,38.8,27.0,30.13,NNW,344,0.0,0.0,63,0.00,,,0.00,0,Custom,2013-11-19 02:53:00,
2013-11-18 20:58:00,39.3,28.0,30.13,NNW,344,0.0,0.0,63,0.00,,,0.00,0,Custom,2013-11-19 02:58:00,
2013-11-18 21:03:00,39.6,28.0,30.13,NNW,344,0.0,0.0,63,0.00,,,0.00,0,Custom,2013-11-19 03:03:00,
2013-11-18 21:08:00,39.4,28.0,30.13,NNW,344,0.0,0.0,63,0.00,,,0.00,0,Custom,2013-11-19 03:08:00,
2013-11-18 21:13:00,39.1,27.0,30.13,NNW,344,0.0,0.0,61,0.00,,,0.00,0,Custom,2013-11-19 03:13:00,
2013-11-18 21:18:00,39.1,27.0,30.13,NNW,344,0.0,0.0,62,0.00,,,0.00,0,Custom,2013-11-19 03:18:00,
2013-11-18 21:23:00,38.8,27.0,30.13,NNW,344,0.0,0.0,63,0.00,,,0.00,0,Custom,2013-11-19 03:23:00,
2013-11-18 21:28:00,38.9,27.0,30.13,NNW,344,0.0,0.0,63,0.00,,,0.00,0,Custom,2013-11-19 03:28:00,
2013-11-18 21:33:00,39.2,27.0,30.13,NNW,344,0.0,0.0,62,0.00,,,0.00,0,Custom,2013-11-19 03:33:00,
2013-11-18 21:38:00,39.3,27.0,30.13,NNW,344,0.0,0.0,62,0.00,,,0.00,0,Custom,2013-11-19 03:38:00,
2013-11-18 21:43:00,40.0,28.0,30.13,NNW,344,0.0,0.0,62,0.00,,,0.00,0,Custom,2013-11-19 03:43:00,
2013-11-18 21:48:00,40.2,28.0,30.13,NNW,344,0.0,0.0,62,0.00,,,0.00,0,Custom,2013-11-19 03:48:00,
2013-11-18 21:53:00,40.3,28.0,30.13,NNW,344,0.0,1.0,61,0.00,,,0.00,0,Custom,2013-11-19 03:53:00,
2013-11-18 21:58:00,40.1,28.0,30.13,NNW,344,0.0,0.0,61,0.00,,,0.00,0,Custom,2013-11-19 03:58:00,
2013-11-18 22:03:00,40.0,28.0,30.13,NNW,344,0.0,0.0,62,0.00,,,0.00,0,Custom,2013-11-19 04:03:00,
2013-11-18 22:08:00,40.2,28.0,30.13,NNW,344,0.0,0.0,62,0.00,,,0.00,0,Custom,2013-11-19 04:08:00,
2013-11-18 22:13:00,40.5,29.0,30.13,NNW,344,0.0,0.0,62,0.00,,,0.00,0,Custom,2013-11-19 04:13:00,
2013-11-18 22:18:00,40.3,29.0,30.13,NNW,344,0.0,0.0,62,0.00,,,0.00,0,Custom,2013-11-19 04:18:00,
2013-11-18 22:23:00,40.0,28.0,30.13,NNW,344,0.0,0.0,62,0.00,,,0.00,0,Custom,2013-11-19 04:23:00,
2013-11-18 22:28:00,39.7,28.0,30.13,NNW,344,0.0,0.0,63,0.00,,,0.00,0,Custom,2013-11-19 04:28:00,
2013-11-18 22:33:00,39.6,28.0,30.13,NNW,344,0.0,0.0,63,0.00,,,0.00,0,Custom,2013-11-19 04:33:00,
2013-11-18 22:38:00,39.8,28.0,30.13,NNW,344,0.0,0.0,63,0.00,,,0.00,0,Custom,2013-11-19 04:38:00,
2013-11-18 22:43:00,40.0,28.0,30.13,NNW,344,0.0,0.0,63,0.00,,,0.00,0,Custom,2013-11-19 04:43:00,
2013-11-18 22:48:00,39.8,28.0,30.14,NNW,344,0.0,0.0,63,0.00,,,0.00,0,Custom,2013-11-19 04:48:00,
2013-11-18 22:53:00,39.3,29.0,30.13,NNW,344,0.0,0.0,66,0.00,,,0.00,0,Custom,2013-11-19 04:53:00,
2013-11-18 22:58:00,39.2,28.0,30.13,NNW,344,0.0,0.0,65,0.00,,,0.00,0,Custom,2013-11-19 04:58:00,
2013-11-18 23:01:00,38.9,28.0,30.13,NNW,344,0.0,0.0,65,0.00,,,0.00,0,Custom,2013-11-19 05:01:00,
2013-11-18 23:02:00,38.9,28.0,30.13,NNW,344,0.0,0.0,65,0.00,,,0.00,0,Custom,2013-11-19 05:02:00,
2013-11-18 23:03:00,38.9,28.0,30.13,NNW,344,0.0,0.0,65,0.00,,,0.00,0,Custom,2013-11-19 05:03:00,
2013-11-18 23:05:00,39.0,28.0,30.14,NNW,344,0.0,0.0,66,0.00,,,0.00,0,Custom,2013-11-19 05:05:00,
2013-11-18 23:06:00,39.0,28.0,30.14,NNW,344,0.0,0.0,66,0.00,,,0.00,0,Custom,2013-11-19 05:06:00,
2013-11-18 23:11:00,38.9,28.0,30.13,NNW,344,0.0,0.0,66,0.00,,,0.00,0,Custom,2013-11-19 05:11:00,
2013-11-18 23:16:00,39.3,29.0,30.14,NNW,344,0.0,0.0,65,0.00,,,0.00,0,Custom,2013-11-19 05:16:00,
2013-11-18 23:21:00,39.4,29.0,30.14,South,189,0.0,1.0,65,0.00,,,0.00,0,Custom,2013-11-19 05:21:00,
2013-11-18 23:26:00,39.8,29.0,30.13,South,189,0.0,2.0,65,0.00,,,0.00,0,Custom,2013-11-19 05:26:00,
2013-11-18 23:31:00,39.4,29.0,30.13,South,189,0.0,0.0,65,0.00,,,0.00,0,Custom,2013-11-19 05:31:00,
2013-11-18 23:36:00,39.6,29.0,30.13,South,189,0.0,0.0,65,0.00,,,0.00,0,Custom,2013-11-19 05:36:00,
2013-11-18 23:41:00,40.3,29.0,30.13,South,189,0.0,1.0,65,0.00,,,0.00,0,Custom,2013-11-19 05:41:00,
2013-11-18 23:46:00,40.0,29.0,30.14,South,189,0.0,1.0,64,0.00,,,0.00,0,Custom,2013-11-19 05:46:00,
2013-11-18 23:51:00,39.6,29.0,30.14,South,189,0.0,1.0,64,0.00,,,0.00,0,Custom,2013-11-19 05:51:00,
2013-11-18 23:56:00,39.1,28.0,30.14,South,189,0.0,0.0,65,0.00,,,0.00,0,Custom,2013-11-19 05:56:00,